Torna al catalogo

STARLINK-37034

AttivoComunicazioniVLEO
NORAD 68171·PAYLOAD·🇺🇸 United States

Lanciato Mar 14, 2026 da Vandenberg Space Force Base

Loading…

Prossimi Passaggi (prossime 24 ore)

TLE

AggiornatoSource: CelesTrak SupGP

Epoca: Sep 14, 2026, 21:38 UTC

1 68171C 26050E   26257.90187500  .00007850  00000+0  23188-3 0  2579
2 68171  53.1568 103.9421 0001123  78.0246  75.9077 15.34392062    18

Traccia STARLINK-37034 in tempo reale con AllMySat

Download on the App Store